sat.trackr.live / text

‹ back to catalog

STARLINK-32243

NORAD 60367 · 2024-138N

PAYLOAD ACTIVE UNKNOWN

§ Identity

Operator
Country
US
Launch date
2024-08-04
Launch site
AFWTR
Launch vehicle
Mass (kg)
RCS (m²)

Purposes: comms

External: N2YO · Heavens-Above · Gunter

§ Orbital elements

Epoch: 2026-05-24T19:50:44.018304Z

Period
94.11 min
Inclination
53.1619°
Eccentricity
0.0000869
Mean motion
15.30192765 rev/d
Perigee alt
474.6 km
Apogee alt
475.8 km
Semi-major
6,853.4 km
B*
-3.8829e-5
RAAN
316.0157°
Arg perigee
60.2392°
Mean anomaly
299.8695°
Rev number
10,228

§ Raw data

STARLINK-322431 60367U 24138N   26144.82689836 -.00001508  00000+0 -38829-4 0  99962 60367  53.1619 316.0157 0000869  60.2392 299.8695 15.30192765102287

JSON: /api/v1/satellites/60367 · /tle

For live sub-satellite position, see the globe view (requires WebGL).

§ Visibility from observer

Set your observer location to see the next 7 days of passes ≥ 10°. The values pass through the URL so the page stays shareable.

No JS? Fill the form by hand. The geolocation button needs JavaScript.